Flag for Guadeloupe Weather past 2 weeks in Basse-Terre, Guadeloupe

Now
72 °F

Mostly cloudy.


Feels Like: 69 °F
Forecast: 72 / 80 °F
Wind: No wind

Location: Le Raizet - Guadeloupe

Current Time: Mar 3, 2015 at 6:02:19 AM

Latest Report: Mar 3, 2015 at 5:30 AM


Visibility: N/A

Pressure: 29.95 "Hg

Humidity: 88%

Dew point: 68 °F

Location of Basse-TerreLocation

Historic Weather in Basse-Terre — Graph

°F

Basse-Terre temperature yesterday

Maximum temperature yesterday: 84 °F (at 11:00 AM)
Minimum temperature yesterday: 72 °F (at 12:30 AM)
Average temperature yesterday: 76 °F

Past Weeks' High & Low Weather Summary

 TemperatureHumidityPressure
High86 °F (Feb 17, 11:30 AM)94% (Feb 16, 5:00 AM)30.12 "Hg (Feb 16, 5:00 AM)
Low68 °F (Feb 16, 5:00 AM)43% (Feb 19, 2:04 PM)29.92 "Hg (Feb 19, 3:00 PM)
Average77 °F71%30.02 "Hg
* Reported Feb 16 5:00 AM — Mar 3 5:00 AM, Basse-Terre, Weather by CustomWeather, © 2015

Note: Actual official high and low records may vary slightly from our data, if they occured in-between our weather recording intervals... More about our weather records

Advertising

Basse-Terre weather history for previous 24 hours

 ConditionsComfort  
Time TempWeatherWind HumidityBarometerVisibility
5:00 AM
Tue, Mar 3
72 °FMostly cloudy.No wind83%29.95 "HgN/A
4:30 AM72 °FMostly cloudy.No wind83%29.95 "HgN/A
4:00 AM72 °FMild.2 mph83%29.95 "HgN/A
3:30 AM72 °FMild.1 mph83%29.95 "HgN/A
3:00 AM73 °FMostly cloudy.3 mph78%29.95 "HgN/A
2:30 AM72 °FPassing clouds.No wind88%29.95 "HgN/A
2:00 AM73 °FPartly cloudy.No wind83%29.98 "HgN/A
1:30 AM72 °FClear.No wind88%29.98 "HgN/A
1:00 AM73 °FClear.No wind83%30.01 "HgN/A
12:30 AM73 °FOvercast.2 mph83%30.01 "HgN/A
12:00 AM73 °FClear.3 mph83%30.01 "HgN/A
11:30 PM
Mon, Mar 2
73 °FOvercast.2 mph83%30.01 "HgN/A
11:00 PM73 °FMostly cloudy.2 mph83%30.01 "HgN/A
10:30 PM73 °FMild.2 mph83%30.04 "HgN/A
10:00 PM73 °FOvercast.5 mph83%30.04 "HgN/A
9:30 PM73 °FOvercast.5 mph83%30.04 "HgN/A
9:00 PM73 °FPartly cloudy.8 mph78%30.04 "HgN/A
8:30 PM75 °FLight rain. Overcast.15 mph69%30.01 "HgN/A
8:00 PM77 °FMostly cloudy.8 mph65%30.01 "HgN/A
7:30 PM77 °FClear.3 mph65%30.01 "HgN/A
7:00 PM77 °FPassing clouds.7 mph65%29.98 "HgN/A
6:30 PM77 °FPassing clouds.7 mph65%29.98 "HgN/A
6:00 PM77 °FPartly sunny.6 mph69%29.98 "HgN/A
5:30 PM77 °FScattered clouds.9 mph69%29.98 "HgN/A
5:00 PM79 °FScattered clouds.14 mph65%29.95 "HgN/A
4:30 PM77 °FScattered clouds.10 mph69%29.95 "HgN/A
4:14 PM77 °FScattered clouds.12 mph69%29.95 "HgN/A
4:00 PM75 °FScattered clouds.14 mph78%29.95 "HgN/A
3:36 PM75 °FScattered clouds.13 mph78%29.95 "HgN/A
3:07 PM82 °FScattered clouds.15 mph58%29.95 "HgN/A
2:30 PM82 °FScattered clouds.16 mph55%29.95 "HgN/A
2:00 PM82 °FScattered clouds.14 mph58%29.98 "HgN/A
1:30 PM79 °FScattered clouds.13 mph65%30.01 "HgN/A
1:07 PM79 °FScattered clouds.12 mph65%30.01 "HgN/A
12:30 PM82 °FScattered clouds.16 mph51%30.01 "HgN/A
12:00 PM81 °FScattered clouds.17 mph54%30.04 "HgN/A
11:30 AM79 °FScattered clouds.16 mph65%30.04 "HgN/A
11:00 AM84 °FPassing clouds.14 mph55%30.07 "HgN/A
10:30 AM81 °FPassing clouds.12 mph62%30.07 "HgN/A
10:00 AM79 °FPassing clouds.17 mph61%30.07 "HgN/A
9:30 AM81 °FPassing clouds.17 mph62%30.07 "HgN/A
9:00 AM81 °FPassing clouds.15 mph62%30.07 "HgN/A
8:30 AM79 °FPassing clouds.10 mph70%30.04 "HgN/A
8:00 AM77 °FPassing clouds.6 mph69%30.04 "HgN/A
7:30 AM75 °FPassing clouds.3 mph74%30.04 "HgN/A
7:00 AM73 °FMore clouds than sun.5 mph78%30.04 "HgN/A
6:30 AM72 °FBroken clouds.2 mph83%30.01 "Hg6 mi
6:00 AM72 °FPartly cloudy.5 mph83%30.01 "HgN/A
Weather by CustomWeather, © 2015

See weather overviewHow to use our weather pages